Simultaneous Nadir Overpasses (SNOs) Predictions

Prediction of SNOs between LANDSAT-8 and METOP-A Satellite Orbit:

Table of predicted SNOs for the next 14.0 days since TLE Epoch: 5/30/2015
Index Date (LANDSAT-8) Time (LANDSAT-8) Lat,Lon (LANDSAT-8) SZA (LANDSAT-8 ) Date (METOP-A) Time (METOP-A) Lat,Lon (METOP-A) SZA (METOP-A ) Distance(km) Time Diff (sec)
1 05/31/2015 18:37:56 81.18, -58.66 61.54 05/31/2015 18:36:59 81.18, -58.60 61.53 1.20 57
2 05/31/2015 19:27:22 -81.20, 109.28 118.42 05/31/2015 19:27:38 -81.20, 109.33 118.41 1.17 16
3 06/03/2015 14:12:13 81.20, 8.08 61.21 06/03/2015 14:11:19 81.19, 7.97 61.17 2.15 54
4 06/03/2015 15:01:40 -81.19, 175.68 118.81 06/03/2015 15:01:59 -81.20, 175.54 118.81 2.36 19
5 06/06/2015 09:46:31 81.19, 74.38 60.86 06/06/2015 09:45:39 81.19, 74.50 60.85 2.12 52
6
